Location: Newark
(40.3417°N, 75.9264°W)
Time: 09:20:15
(UTC+00:00)

PSAT 2 - Visible Passes

Search period start: 06 June 2020 00:00
Search period end: 16 June 2020 00:00
Orbit: 303 x 809 km, 28.5° (Epoch: 05 June)

Date Brightness Start Highest point End Pass type
(mag) Time Alt. Az. Time Alt. Az. Time Alt. Az.
06 Jun ? 01:20:28 10° SW 01:22:52 14° SSW 01:25:05 10° SSE visible
07 Jun ? 01:15:44 10° SW 01:18:04 14° SSW 01:20:15 10° SSE visible
08 Jun ? 01:11:09 10° SW 01:13:15 13° SSW 01:15:13 10° S visible
09 Jun ? 01:06:47 10° SW 01:08:23 12° SSW 01:09:54 10° S visible
